| time (UTC) | temp F | wind direction | speed MPH | gust MPH | rain 1hr in | rain 24hr in | rain mn in | humidity % | barometer mb |
| 20260507220041 | 58 | 76 | 0.0 | 5.0 | 0.00 | 0.38 | 0.29 | 88 | 1011.6 |
| 20260507214537 | 57 | 28 | 2.0 | 7.0 | 0.00 | 0.38 | 0.29 | 88 | 1011.3 |
| 20260507213040 | 58 | 17 | 3.0 | 12.0 | 0.00 | 0.38 | 0.29 | 88 | 1011.3 |
| 20260507211537 | 57 | 33 | 2.0 | 12.0 | 0.00 | 0.38 | 0.29 | 90 | 1011.2 |
| 20260507210049 | 57 | 31 | 2.0 | 9.0 | 0.00 | 0.38 | 0.29 | 90 | 1011.2 |
| 20260507204535 | 57 | 360 | 1.0 | 6.0 | 0.00 | 0.38 | 0.29 | 91 | 1011.1 |
| 20260507203044 | 57 | 34 | 3.0 | 10.0 | 0.04 | 0.38 | 0.29 | 92 | 1011.0 |
| 20260507201540 | 57 | 51 | 3.0 | 15.0 | 0.04 | 0.38 | 0.29 | 92 | 1011.2 |
| 20260507200038 | 57 | 5 | 1.0 | 6.0 | 0.05 | 0.38 | 0.29 | 93 | 1011.1 |
| 20260507194607 | 57 | 13 | 2.0 | 8.0 | 0.05 | 0.38 | 0.29 | 92 | 1011.7 |
| 20260507193038 | 58 | 352 | 1.0 | 5.0 | 0.01 | 0.34 | 0.25 | 91 | 1011.4 |
| 20260507191541 | 59 | 14 | 2.0 | 11.0 | 0.01 | 0.34 | 0.25 | 89 | 1011.0 |
| 20260507190049 | 59 | 5 | 1.0 | 13.0 | 0.00 | 0.33 | 0.24 | 88 | 1010.9 |
| 20260507184540 | 60 | 75 | 1.0 | 10.0 | 0.00 | 0.33 | 0.24 | 88 | 1011.2 |
| 20260507183044 | 60 | 31 | 2.0 | 8.0 | 0.00 | 0.33 | 0.24 | 86 | 1011.0 |
| 20260507181537 | 61 | 60 | 2.0 | 7.0 | 0.00 | 0.33 | 0.24 | 87 | 1011.1 |
| 20260507180039 | 62 | 42 | 2.0 | 9.0 | 0.00 | 0.33 | 0.24 | 86 | 1011.0 |
| 20260507174553 | 63 | 5 | 3.0 | 8.0 | 0.00 | 0.33 | 0.24 | 84 | 1010.7 |
| 20260507173103 | 64 | 48 | 2.0 | 8.0 | 0.00 | 0.33 | 0.24 | 84 | 1010.9 |
| 20260507171545 | 64 | 13 | 2.0 | 10.0 | 0.00 | 0.33 | 0.24 | 84 | 1011.0 |
| 20260507170039 | 63 | 70 | 1.0 | 9.0 | 0.00 | 0.33 | 0.24 | 90 | 1011.1 |
| 20260507164547 | 64 | 57 | 2.0 | 6.0 | 0.00 | 0.33 | 0.24 | 89 | 1011.1 |
| 20260507163042 | 63 | 32 | 2.0 | 8.0 | 0.00 | 0.33 | 0.24 | 92 | 1010.9 |
| 20260507161556 | 63 | 16 | 2.0 | 9.0 | 0.00 | 0.33 | 0.24 | 91 | 1010.8 |
| 20260507160041 | 66 | 93 | 1.0 | 2.0 | 0.00 | 0.33 | 0.24 | 90 | 1010.8 |
| 20260507154542 | 66 | 305 | 0.0 | 2.0 | 0.00 | 0.33 | 0.24 | 92 | 1011.0 |
| 20260507153040 | 65 | 175 | 0.0 | 2.0 | 0.00 | 0.33 | 0.24 | 95 | 1011.0 |
| 20260507151536 | 64 | 186 | 0.0 | 2.0 | 0.00 | 0.33 | 0.24 | 95 | 1011.5 |
| 20260507150035 | 64 | 242 | 0.0 | 2.0 | 0.00 | 0.33 | 0.24 | 95 | 1011.7 |
| 20260507144546 | 64 | 0 | 0.0 | 3.0 | 0.00 | 0.33 | 0.24 | 95 | 1011.7 |
| 20260507143043 | 63 | 0 | 0.0 | 2.0 | 0.00 | 0.33 | 0.24 | 95 | 1011.2 |
| 20260507141551 | 63 | 0 | 0.0 | 2.0 | 0.00 | 0.33 | 0.24 | 96 | 1010.9 |
| 20260507140039 | 63 | 0 | 0.0 | 2.0 | 0.02 | 0.33 | 0.24 | 96 | 1011.1 |
| 20260507134536 | 62 | 0 | 0.0 | 2.0 | 0.03 | 0.33 | 0.24 | 96 | 1011.4 |
| 20260507133037 | 62 | 302 | 0.0 | 2.0 | 0.05 | 0.33 | 0.24 | 96 | 1011.2 |
| 20260507131541 | 62 | 0 | 0.0 | 2.0 | 0.09 | 0.33 | 0.24 | 96 | 1011.2 |
| 20260507130040 | 62 | 173 | 0.0 | 1.0 | 0.08 | 0.31 | 0.22 | 96 | 1011.1 |
| 20260507124540 | 62 | 0 | 0.0 | 2.0 | 0.09 | 0.30 | 0.21 | 96 | 1011.8 |
| 20260507123042 | 62 | 0 | 0.0 | 2.0 | 0.08 | 0.28 | 0.19 | 95 | 1012.5 |
| 20260507121541 | 62 | 0 | 0.0 | 2.0 | 0.05 | 0.24 | 0.15 | 95 | 1012.1 |
| 20260507120045 | 62 | 188 | 0.0 | 2.0 | 0.04 | 0.23 | 0.14 | 95 | 1011.9 |
| 20260507114543 | 62 | 0 | 0.0 | 0.0 | 0.02 | 0.21 | 0.12 | 95 | 1012.3 |
| 20260507113047 | 62 | 0 | 0.0 | 2.0 | 0.01 | 0.20 | 0.11 | 95 | 1011.9 |
| 20260507111541 | 61 | 0 | 0.0 | 0.0 | 0.00 | 0.19 | 0.10 | 95 | 1011.7 |
| 20260507110040 | 61 | 0 | 0.0 | 2.0 | 0.00 | 0.19 | 0.10 | 95 | 1011.3 |
| 20260507104536 | 61 | 0 | 0.0 | 2.0 | 0.00 | 0.19 | 0.10 | 95 | 1011.5 |
| 20260507103036 | 61 | 0 | 0.0 | 2.0 | 0.00 | 0.19 | 0.10 | 95 | 1011.3 |
| 20260507101542 | 61 | 213 | 0.0 | 2.0 | 0.00 | 0.19 | 0.10 | 95 | 1011.1 |
| 20260507100043 | 61 | 175 | 0.0 | 2.0 | 0.00 | 0.19 | 0.10 | 95 | 1011.4 |
| 20260507094544 | 61 | 0 | 0.0 | 3.0 | 0.00 | 0.19 | 0.10 | 95 | 1011.4 |
| 20260507093037 | 61 | 188 | 0.0 | 2.0 | 0.00 | 0.19 | 0.10 | 95 | 1011.5 |
| 20260507091536 | 62 | 0 | 0.0 | 0.0 | 0.00 | 0.19 | 0.10 | 95 | 1011.2 |
| 20260507090036 | 62 | 190 | 0.0 | 2.0 | 0.00 | 0.19 | 0.10 | 95 | 1011.4 |
| 20260507084534 | 62 | 0 | 0.0 | 2.0 | 0.00 | 0.19 | 0.10 | 95 | 1011.8 |
| 20260507083040 | 62 | 285 | 0.0 | 2.0 | 0.00 | 0.19 | 0.10 | 95 | 1011.5 |
| 20260507081545 | 62 | 0 | 0.0 | 2.0 | 0.01 | 0.19 | 0.10 | 95 | 1011.4 |
| 20260507080038 | 62 | 269 | 0.0 | 3.0 | 0.02 | 0.19 | 0.10 | 95 | 1011.4 |
| 20260507074535 | 62 | 0 | 0.0 | 2.0 | 0.07 | 0.19 | 0.10 | 95 | 1011.4 |
| 20260507073035 | 62 | 213 | 0.0 | 6.0 | 0.08 | 0.19 | 0.10 | 95 | 1011.4 |
| 20260507071542 | 62 | 238 | 1.0 | 4.0 | 0.07 | 0.18 | 0.09 | 95 | 1011.8 |
| 20260507070040 | 62 | 200 | 1.0 | 2.0 | 0.06 | 0.17 | 0.08 | 95 | 1011.7 |
| 20260507064543 | 62 | 0 | 0.0 | 0.0 | 0.01 | 0.12 | 0.03 | 95 | 1012.3 |
| 20260507063047 | 62 | 187 | 0.0 | 2.0 | 0.01 | 0.11 | 0.02 | 95 | 1012.0 |
| 20260507061541 | 62 | 0 | 0.0 | 2.0 | 0.01 | 0.11 | 0.02 | 94 | 1012.7 |
| 20260507060041 | 62 | 0 | 0.0 | 2.0 | 0.01 | 0.11 | 0.02 | 94 | 1013.2 |
| 20260507054537 | 62 | 223 | 0.0 | 2.0 | 0.02 | 0.11 | 0.02 | 94 | 1013.7 |
| 20260507053037 | 63 | 0 | 0.0 | 3.0 | 0.01 | 0.10 | 0.01 | 94 | 1013.7 |
| 20260507051535 | 63 | 0 | 0.0 | 0.0 | 0.01 | 0.10 | 0.01 | 94 | 1013.8 |
| 20260507050036 | 63 | 0 | 0.0 | 3.0 | 0.01 | 0.10 | 0.01 | 94 | 1013.9 |
| 20260507044541 | 63 | 0 | 0.0 | 1.0 | 0.00 | 0.09 | 0.00 | 94 | 1014.3 |
| 20260507043038 | 63 | 0 | 0.0 | 2.0 | 0.00 | 0.09 | 0.00 | 94 | 1013.8 |
| 20260507041542 | 63 | 0 | 0.0 | 2.0 | 0.00 | 0.09 | 0.00 | 93 | 1013.6 |
| 20260507040040 | 63 | 217 | 0.0 | 3.0 | 0.02 | 0.09 | 0.00 | 93 | 1013.3 |
| 20260507034549 | 64 | 192 | 1.0 | 4.0 | 0.03 | 0.09 | 0.09 | 93 | 1013.2 |
| 20260507033100 | 64 | 230 | 1.0 | 12.0 | 0.04 | 0.09 | 0.09 | 93 | 1013.1 |
| 20260507031537 | 65 | 121 | 2.0 | 5.0 | 0.05 | 0.09 | 0.09 | 93 | 1013.2 |
| 20260507030033 | 65 | 251 | 1.0 | 2.0 | 0.03 | 0.07 | 0.07 | 92 | 1014.9 |
| 20260507024551 | 65 | 286 | 1.0 | 3.0 | 0.02 | 0.06 | 0.06 | 92 | 1014.5 |
| 20260507023041 | 66 | 247 | 1.0 | 4.0 | 0.02 | 0.05 | 0.05 | 92 | 1014.1 |
| 20260507021538 | 66 | 225 | 1.0 | 6.0 | 0.01 | 0.04 | 0.04 | 92 | 1014.0 |
| 20260507020037 | 66 | 267 | 0.0 | 2.0 | 0.01 | 0.04 | 0.04 | 92 | 1013.8 |
| 20260507014535 | 66 | 232 | 0.0 | 2.0 | 0.02 | 0.04 | 0.04 | 92 | 1013.6 |
| 20260507013041 | 65 | 0 | 0.0 | 2.0 | 0.02 | 0.03 | 0.03 | 92 | 1013.2 |
| 20260507011541 | 66 | 205 | 0.0 | 2.0 | 0.03 | 0.03 | 0.03 | 92 | 1012.8 |
| 20260507010041 | 66 | 216 | 0.0 | 2.0 | 0.03 | 0.03 | 0.03 | 91 | 1013.1 |
| 20260507004535 | 66 | 238 | 0.0 | 3.0 | 0.02 | 0.02 | 0.02 | 91 | 1013.5 |
| 20260507003034 | 66 | 128 | 0.0 | 2.0 | 0.01 | 0.01 | 0.01 | 90 | 1013.4 |
| 20260507001604 | 66 | 0 | 0.0 | 2.0 | 0.00 | 0.00 | 0.00 | 88 | 1013.1 |
| 20260507000032 | 67 | 0 | 0.0 | 4.0 | 0.00 | 0.00 | 0.00 | 84 | 1012.8 |
| 20260506234549 | 68 | 217 | 0.0 | 3.0 | 0.00 | 0.00 | 0.00 | 83 | 1013.0 |
| 20260506233037 | 68 | 0 | 1.0 | 7.0 | 0.00 | 0.00 | 0.00 | 82 | 1012.8 |
| 20260506231537 | 69 | 187 | 0.0 | 3.0 | 0.00 | 0.00 | 0.00 | 80 | 1012.8 |
| 20260506230035 | 69 | 186 | 0.0 | 2.0 | 0.00 | 0.00 | 0.00 | 78 | 1013.2 |
| 20260506224537 | 70 | 0 | 0.0 | 2.0 | 0.00 | 0.00 | 0.00 | 78 | 1013.4 |
| 20260506223040 | 70 | 246 | 0.0 | 3.0 | 0.00 | 0.00 | 0.00 | 77 | 1013.7 |
| 20260506221541 | 70 | 248 | 1.0 | 5.0 | 0.00 | 0.00 | 0.00 | 77 | 1013.6 |